Cape Cod CGAS, MA

4:06 AM EST on December 15, 2017 (GMT -0500)
Cape Cod Coast Guard Air Station

Weather History for KFMH - March, 2015

Change the Weather History Date:

Thursday, March 5, 2015

  Actual Average Record
Temperature  
Mean Temperature 26 °F -  
Max Temperature 36 °F 40 °F 57 °F (2008)
Min Temperature 17 °F 23 °F 8 °F (2017)
Degree Days  
Heating Degree Days 38    
Moisture  
Dew Point 24 °F    
Average Humidity 89    
Maximum Humidity 100    
Minimum Humidity 58    
Precipitation  
Precipitation 0.08 in - - ()
Sea Level Pressure  
Sea Level Pressure 30.05 in    
Wind  
Wind Speed 6 mph (NNW)    
Max Wind Speed 16 mph    
Max Gust Speed 22 mph    
Visibility 3 miles    
Events Rain , Snow    
Averages and records for this station are not official NWS values.
T = Trace of Precipitation, MM = Missing Value Source: NWS Daily Summary

Daily Weather History Graph

Daily Weather History Graph

Search for Another Location

Airport or City:

Trip Planner

Search our weather history database for the weather conditions in past years. The results will help you decide how hot, cold, wet, or windy it might be!

Date:

Astronomy

Mar. 05, 2015 Rise Set
Actual Time 6:10 AM EST 5:36 PM EST
Civil Twilight 5:43 AM EST 6:04 PM EST
Nautical Twilight 5:11 AM EST 6:36 PM EST
Astronomical Twilight 4:38 AM EST 7:09 PM EST
Moon 5:47 PM EST (3/5) 5:54 AM EST (3/5)
Length of Visible Light 12h 21m
Length of Day
11h 26m
Full, 100% of the Moon is Illuminated
Mar 5
Full
Mar 5
Full
Mar 13
Last Quarter
Mar 20
New
Mar 27
First Quarter

Hourly Weather History & Observations

Time (EST) Temp. Windchill Dew Point Humidity Pressure Visibility Wind Dir Wind Speed Gust Speed Precip Events Conditions
12:15 AM 35.6 °F 30.7 °F 33.8 °F 93% 29.87 in 3.0 mi West 5.8 mph - N/A Rain Light Rain
12:35 AM 35.6 °F 30.7 °F 33.8 °F 93% 29.87 in 4.0 mi WSW 5.8 mph - N/A   Overcast
12:55 AM 35.6 °F 31.7 °F 33.8 °F 93% 29.86 in 4.0 mi SSW 4.6 mph - N/A Rain Light Rain
1:15 AM 35.6 °F 32.8 °F 33.8 °F 93% 29.86 in 3.0 mi SW 3.5 mph - N/A   Overcast
1:35 AM 35.6 °F - 33.8 °F 93% 29.86 in 2.0 mi Calm Calm - N/A   Overcast
1:55 AM 33.8 °F - 33.8 °F 100% 29.86 in 1.2 mi Calm Calm - N/A   Overcast
2:15 AM 35.6 °F - 33.8 °F 93% 29.86 in 1.5 mi Calm Calm - N/A   Light Drizzle
2:35 AM 35.6 °F - 33.8 °F 93% 29.85 in 1.2 mi Calm Calm - N/A Rain Light Rain
2:55 AM 35.6 °F - 33.8 °F 93% 29.85 in 0.5 mi Calm Calm - N/A Rain Light Rain
3:15 AM 35.6 °F - 33.8 °F 93% 29.85 in 3.0 mi Calm Calm - N/A Rain Light Rain
3:35 AM 33.8 °F 30.8 °F 33.8 °F 100% 29.88 in 3.0 mi NW 3.5 mph - N/A Rain Light Rain
3:55 AM 33.8 °F 29.6 °F 33.8 °F 100% 29.89 in 3.0 mi NW 4.6 mph - N/A Rain Light Rain
4:15 AM 33.8 °F 28.6 °F 33.8 °F 100% 29.92 in 3.0 mi NNW 5.8 mph - N/A Rain Light Rain
4:35 AM 33.8 °F 29.6 °F 32.0 °F 93% 29.91 in 2.0 mi North 4.6 mph - N/A Snow Light Snow
4:55 AM 32.0 °F 28.7 °F 32.0 °F 100% 29.91 in 3.0 mi NNW 3.5 mph - N/A Snow Light Snow
5:15 AM 32.0 °F 25.6 °F 32.0 °F 100% 29.92 in 4.0 mi Variable 6.9 mph - N/A Snow Light Snow
5:35 AM 32.0 °F 23.6 °F 32.0 °F 100% 29.95 in 2.5 mi NNW 10.4 mph 19.6 mph N/A Snow Light Snow
5:55 AM 32.0 °F 24.8 °F 32.0 °F 100% 29.97 in 1.8 mi WNW 8.1 mph - N/A Snow Light Snow
6:15 AM 32.0 °F 24.8 °F 30.2 °F 93% 29.97 in 1.0 mi WNW 8.1 mph - N/A Snow Light Snow
6:35 AM 32.0 °F 26.4 °F 30.2 °F 93% 29.97 in 0.8 mi NW 5.8 mph - N/A Snow Light Snow
6:55 AM 32.0 °F 28.7 °F 30.2 °F 93% 29.97 in 1.2 mi NW 3.5 mph - N/A Snow Light Snow
7:15 AM 32.0 °F 27.5 °F 30.2 °F 93% 29.98 in 1.2 mi WNW 4.6 mph - N/A Snow Light Snow
7:35 AM 32.0 °F 28.7 °F 30.2 °F 93% 29.99 in 0.8 mi NNW 3.5 mph - N/A Snow Light Snow
7:55 AM 32.0 °F 25.6 °F 30.2 °F 93% 30.00 in 1.0 mi NNW 6.9 mph - N/A Snow Light Snow
8:15 AM 32.0 °F 24.8 °F 30.2 °F 93% 30.00 in 0.5 mi North 8.1 mph - N/A Snow Light Snow
8:35 AM 32.0 °F 28.7 °F 30.2 °F 93% 30.03 in 0.5 mi Variable 3.5 mph - N/A Snow Light Snow
8:55 AM 30.2 °F 23.4 °F 30.2 °F 100% 30.03 in 1.0 mi Variable 6.9 mph - N/A Snow Light Snow
9:15 AM 30.2 °F 23.4 °F 30.2 °F 100% 30.03 in 1.0 mi Variable 6.9 mph 13.8 mph N/A Snow Light Snow
9:35 AM 30.2 °F 20.8 °F 28.4 °F 93% 30.03 in 1.2 mi North 11.5 mph - N/A Snow Light Snow
9:55 AM 30.2 °F 22.6 °F 28.4 °F 93% 30.04 in 1.0 mi North 8.1 mph - N/A Snow Light Snow
10:15 AM 28.4 °F 18.5 °F 26.6 °F 93% 30.05 in 1.2 mi NNW 11.5 mph 20.7 mph N/A Snow Light Snow
10:35 AM 28.4 °F 18.5 °F 24.8 °F 86% 30.05 in 2.0 mi NNW 11.5 mph 21.9 mph N/A Snow Light Snow
10:55 AM 28.4 °F - 26.6 °F 93% 30.07 in 1.8 mi North - - N/A Snow Light Snow
11:15 AM 28.4 °F 18.5 °F 24.8 °F 86% 30.06 in 0.8 mi NNW 11.5 mph 19.6 mph N/A Snow Light Snow
11:35 AM 26.6 °F 17.5 °F 24.8 °F 93% 30.06 in 1.0 mi North 9.2 mph 16.1 mph N/A Snow Light Snow
11:55 AM 28.4 °F 23.3 °F 24.8 °F 86% 30.05 in 1.0 mi Variable 4.6 mph - N/A Snow Light Snow
12:15 PM 26.6 °F 18.2 °F 24.8 °F 93% 30.03 in 1.5 mi NNW 8.1 mph 15.0 mph N/A Snow Light Snow
12:35 PM 26.6 °F 20.0 °F 23.0 °F 86% 30.04 in 1.2 mi Variable 5.8 mph 18.4 mph N/A Snow Light Snow
12:55 PM 26.6 °F 17.5 °F 24.8 °F 93% 30.07 in 1.0 mi NW 9.2 mph - N/A Snow Light Snow
1:15 PM 26.6 °F 17.5 °F 23.0 °F 86% 30.08 in 0.5 mi WNW 9.2 mph - N/A Snow Light Snow
1:35 PM 24.8 °F 13.4 °F 23.0 °F 93% 30.09 in 0.8 mi WNW 12.7 mph - N/A Snow Light Snow
1:55 PM 24.8 °F 14.0 °F 23.0 °F 93% 30.09 in 0.2 mi NW 11.5 mph - N/A Snow Snow
2:15 PM 24.8 °F 16.1 °F 23.0 °F 93% 30.09 in 0.8 mi NNW 8.1 mph - N/A Snow Light Snow
2:35 PM 24.8 °F 15.3 °F 23.0 °F 93% 30.06 in 1.0 mi North 9.2 mph - N/A Snow Light Snow
2:55 PM 24.8 °F 15.3 °F 23.0 °F 93% 30.09 in 0.8 mi North 9.2 mph - N/A Snow Light Snow
3:15 PM 24.8 °F 16.9 °F 23.0 °F 93% 30.10 in 0.8 mi NNW 6.9 mph - N/A Snow Light Snow
3:35 PM 23.0 °F 12.4 °F 21.2 °F 93% 30.11 in 0.5 mi NNW 10.4 mph - N/A Snow Snow
3:55 PM 23.0 °F 13.9 °F 21.2 °F 93% 30.11 in 0.5 mi North 8.1 mph - N/A Snow Snow
4:15 PM 23.0 °F 15.8 °F 21.2 °F 93% 30.11 in 1.0 mi North 5.8 mph - N/A Snow Light Snow
4:35 PM 23.0 °F 14.7 °F 21.2 °F 93% 30.12 in 1.0 mi North 6.9 mph - N/A Snow Light Snow
4:55 PM 23.0 °F 13.1 °F 21.2 °F 93% 30.11 in 1.2 mi NNE 9.2 mph - N/A Snow Light Snow
5:15 PM 23.0 °F 13.9 °F 19.4 °F 86% 30.12 in 1.2 mi North 8.1 mph - N/A Snow Light Snow
5:35 PM 23.0 °F 13.9 °F 19.4 °F 86% 30.13 in 1.2 mi North 8.1 mph - N/A Snow Light Snow
5:55 PM 21.2 °F 12.6 °F 19.4 °F 93% 30.14 in 1.5 mi North 6.9 mph - N/A Snow Light Snow
6:15 PM 21.2 °F 10.9 °F 19.4 °F 93% 30.14 in 2.0 mi North 9.2 mph - N/A Snow Light Snow
6:35 PM 21.2 °F 10.9 °F 19.4 °F 93% 30.16 in 2.0 mi North 9.2 mph - N/A Snow Light Snow
6:55 PM 21.2 °F 11.7 °F 19.4 °F 93% 30.16 in 2.5 mi North 8.1 mph 13.8 mph N/A Snow Light Snow
7:15 PM 21.2 °F 12.6 °F 19.4 °F 93% 30.17 in 4.0 mi North 6.9 mph - N/A Snow Light Snow
7:35 PM 21.2 °F 13.6 °F 17.6 °F 86% 30.19 in 4.0 mi NNW 5.8 mph - N/A Snow Light Snow
7:55 PM 21.2 °F 14.9 °F 17.6 °F 86% 30.18 in 10.0 mi North 4.6 mph - N/A Snow Light Snow
8:15 PM 21.2 °F - 15.8 °F 80% 30.18 in 10.0 mi Calm Calm - N/A Rain Light Freezing Rain
8:35 PM 21.2 °F 13.6 °F 15.8 °F 80% 30.20 in 10.0 mi NW 5.8 mph - N/A   Light Freezing Rain
8:55 PM 21.2 °F 12.6 °F 15.8 °F 80% 30.21 in 10.0 mi NNW 6.9 mph - N/A   Light Freezing Rain
9:15 PM 21.2 °F 12.6 °F 15.8 °F 80% 30.22 in 10.0 mi NNW 6.9 mph - N/A   Light Freezing Rain
9:35 PM 21.2 °F 11.7 °F 14.0 °F 74% 30.22 in 10.0 mi NNW 8.1 mph - N/A   Overcast
9:55 PM 21.2 °F 10.1 °F 10.4 °F 63% 30.24 in 10.0 mi NNW 10.4 mph - N/A   Overcast
10:15 PM 19.4 °F 8.6 °F 8.6 °F 63% 30.25 in 10.0 mi NNW 9.2 mph 15.0 mph N/A   Overcast
10:35 PM 19.4 °F 6.6 °F 8.6 °F 63% 30.25 in 10.0 mi NNW 12.7 mph - N/A   Overcast
10:55 PM 19.4 °F 7.2 °F 6.8 °F 58% 30.24 in 10.0 mi NNW 11.5 mph 19.6 mph N/A   Overcast
11:15 PM 19.4 °F 7.2 °F 6.8 °F 58% 30.26 in 10.0 mi NNW 11.5 mph 17.3 mph N/A   Overcast
11:35 PM 17.6 °F 5.7 °F 6.8 °F 63% 30.26 in 10.0 mi NNW 10.4 mph 18.4 mph N/A   Overcast
11:55 PM 17.6 °F 5.7 °F 6.8 °F 63% 30.27 in 10.0 mi NNW 10.4 mph 18.4 mph N/A   Overcast